Flag for U.S.A. Weather past 2 weeks in Oxnard, California, U.S.A.

Now
74 °F

Sunny.


Feels Like: 76 °F
Forecast: 62 / 78 °F
Wind: 16 mph from West

Location: Oxnard Airport

Current Time: Aug 28, 2014 at 4:41:04 PM

Latest Report: Aug 28, 2014 at 3:51 PM


Visibility: 10 mi

Pressure: 29.92 "Hg

Humidity: 64%

Dew point: 61 °F

Location of OxnardLocation

Historic Weather in Oxnard — Graph

°F

Oxnard temperature yesterday

Maximum temperature yesterday: 81 °F (at 1:51 PM)
Minimum temperature yesterday: 61 °F (at 4:51 AM)
Average temperature yesterday: 70 °F

Past Weeks' High & Low Weather Summary

 TemperatureHumidityPressure
High81 °F (Aug 27, 1:51 PM)93% (Aug 15, 3:51 AM)30.04 "Hg (Aug 15, 3:51 AM)
Low57 °F (Aug 26, 4:51 AM)36% (Aug 27, 9:51 AM)29.79 "Hg (Aug 18, 6:51 PM)
Average67 °F78%29.93 "Hg
* Reported Aug 13 2:51 PM — Aug 28 2:51 PM, Oxnard, Weather by CustomWeather, © 2014

Note: Actual official high and low records may vary slightly from our data, if they occured in-between our weather recording intervals... More about our weather records

Advertising

Oxnard weather history for previous 24 hours

 ConditionsComfort  
Time TempWeatherWind HumidityBarometerVisibility
2:51 PM
Aug 28
74 °FSunny.17 mph64%29.94 "Hg10 mi
1:51 PM75 °FSunny.16 mph64%29.95 "Hg9 mi
12:51 PM75 °FSunny.12 mph66%29.97 "Hg9 mi
11:51 AM73 °FSunny.13 mph69%29.99 "Hg9 mi
10:51 AM73 °FSunny.10 mph71%30.00 "Hg9 mi
9:51 AM71 °FSunny.10 mph76%30.00 "Hg8 mi
8:51 AM70 °FSunny.8 mph79%30.00 "Hg7 mi
7:51 AM68 °FSunny.5 mph82%30.00 "Hg4 mi
6:51 AM63 °FClear.No wind84%29.99 "Hg5 mi
5:51 AM65 °FClear.No wind73%29.98 "Hg8 mi
4:51 AM65 °FClear.No wind68%29.98 "Hg10 mi
3:51 AM64 °FClear.No wind84%29.98 "Hg6 mi
2:51 AM65 °FClear.3 mph76%30.00 "Hg10 mi
1:51 AM66 °FClear.No wind87%30.00 "Hg7 mi
12:51 AM67 °FClear.3 mph85%30.01 "Hg8 mi
11:51 PM
Aug 27
66 °FClear.No wind87%30.01 "Hg8 mi
10:51 PM67 °FClear.3 mph85%30.02 "Hg9 mi
9:51 PM68 °FClear.6 mph82%30.02 "Hg9 mi
8:51 PM70 °FClear.5 mph79%30.00 "Hg10 mi
7:51 PM70 °FSunny.8 mph76%29.99 "Hg10 mi
6:51 PM73 °FSunny.12 mph64%29.98 "Hg10 mi
5:51 PM74 °FSunny.13 mph62%29.98 "Hg10 mi
4:51 PM76 °FSunny.12 mph62%29.98 "Hg9 mi
Weather by CustomWeather, © 2014

See weather overviewHow to use our weather pages